Regional Weather Roundup
Issued by NWS

Home | Current Version | Previous Version | Graphics & Text | Print | Product List | Glossary Off
Versions: 1 2 3 4 5 6 7 8 9 10 11 12 13 14 15 16 17 18 19 20 21 22 23 24 25 26 27 28 29 30 31 32 33 34 35 36 37 38 39 40 41 42 43 44 45 46 47 48 49 50

000
ASUS43 KMKX 310211
RWRWI

WISCONSIN REGIONAL WEATHER ROUNDUP
NATIONAL WEATHER SERVICE MILWAUKEE/SULLIVAN WI
900 PM CDT WED JUL 30 2014

NOTE: "FAIR" INDICATES FEW OR NO CLOUDS BELOW 12,000 FEET WITH NO
SIGNIFICANT WEATHER AND/OR OBSTRUCTIONS TO VISIBILITY.

WIZ001-002-006>008-014>016-023>028-310300-
NORTHWEST WISCONSIN

CITY           SKY/WX    TMP DP  RH WIND       PRES   REMARKS
SUPERIOR ARPT  MOCLDY    70  60  71 W6        29.96S
ASHLAND        MOCLDY    61  59  93 SW5       29.97R
HAYWARD        PTCLDY    63  62  97 CALM      29.99S
SIREN          CLEAR     68  58  69 W6        30.02R
RICE LAKE      CLEAR     64  61  89 CALM      30.02S
LADYSMITH      MOCLDY    62  59  91 SW5       30.02S
EAU CLAIRE     PTCLDY    64  63  96 CALM      30.01R
MENOMONIE      CLEAR     67  60  80 CALM      30.02R
NEW RICHMOND   CLEAR     65  57  75 W5        30.03S
OSCEOLA        CLEAR     69  60  73 W3        30.04S
$$

WIZ003>005-009-010-017-018-310300-
NORTH CENTRAL WISCONSIN

CITY           SKY/WX    TMP DP  RH WIND       PRES   REMARKS
WOODRUFF       PTCLDY    61  50  67 CALM      30.00S
RHINELANDER    PTCLDY    59  53  80 E3        30.01S
EAGLE RIVER    PTCLDY    56  56 100 CALM      30.00S FOG
LAND O LAKES   PTCLDY    55  55  97 CALM      30.01R FOG
PHILLIPS       MOCLDY    62  58  87 CALM      30.00S
TOMAHAWK       PTCLDY    58  56  94 CALM      30.01R
MEDFORD        CLOUDY    64  60  88 W7        30.02R
MERRILL        PTCLDY    62  60  95 W5        30.00S
$$

WIZ029-030-035-036-043>047-310300-
CENTRAL WISCONSIN

CITY           SKY/WX    TMP DP  RH WIND       PRES   REMARKS
WAUSAU         LGT RAIN  66  58  75 W8        29.99R
MOSINEE        LGT RAIN  66  55  68 W5        30.01S
MARSHFIELD     MOCLDY    64  59  83 W6        30.01R
STEVENS POINT  MOCLDY    67  53  60 W5        30.00S
WAUPACA        MOCLDY    68  53  57 CALM      29.99S
WAUTOMA        PTCLDY    65  54  67 CALM      30.01R
WISC RAPIDS    PTCLDY    66  56  70 W6        30.01S
CAMP DOUGLAS   MOCLDY    63  63 100 NE1       30.02R
$$

WIZ011>013-019>022-031-037>040-048>050-310300-
NORTHEAST WISCONSIN

CITY           SKY/WX    TMP DP  RH WIND       PRES   REMARKS
ANTIGO         MOCLDY    56  54  92 CALM      30.02R
STURGEON BAY   CLOUDY    61  54  77 S5        29.99R
GREEN BAY      MOCLDY    65  56  72 W6        29.98R
MANITOWOC      CLEAR     61  55  81 S7        30.00R
APPLETON       PTCLDY    66  52  59 W6        29.99S
CLINTONVILLE   MOCLDY    66  52  59 W3        29.98S
OSHKOSH        PTCLDY    65  54  67 W3        29.99R
$$

WIZ032>034-041-042-053>061-310300-
SOUTHWEST WISCONSIN

CITY           SKY/WX    TMP DP  RH WIND       PRES   REMARKS
LA CROSSE      MOCLDY    72  63  73 SW6       30.01S
SPARTA         MOCLDY    66  60  81 CALM      30.03R
VIROQUA        FAIR      66  60  81 SW5       30.05S
BOSCOBEL       CLEAR     65  61  87 CALM      30.03S
PRAIRIE DU CHI CLEAR     68  61  78 CALM      30.03S
PLATTEVILLE    FAIR      69  56  63 NW3       30.06R
$$

WIZ056-057-062-063-064-067-068-310300-
SOUTH CENTRAL WISCONSIN

CITY           SKY/WX    TMP DP  RH WIND       PRES   REMARKS
BARABOO/DELLS  CLEAR     65  52  60 CALM      30.03R
LONE ROCK      CLEAR     67  59  75 W3        30.03R
WATERTOWN      CLEAR     63  58  81 CALM      30.02R
MADISON        PTCLDY    66  53  63 W3        30.02R
MIDDLETON      FAIR      63  52  67 CALM      30.03R
MONROE         CLEAR     68  52  56 NW7       30.04R
JANESVILLE     CLEAR     66  55  68 CALM      30.01S
$$

WIZ051-052-058>065-066-070>072-310300-
SOUTHEAST WISCONSIN

CITY           SKY/WX    TMP DP  RH WIND       PRES   REMARKS
MILWAUKEE      PTCLDY    63  51  65 S6        30.01R
WAUKESHA       PTCLDY    61  52  72 SW5       30.02R
MILWAUKEE/TIMM CLEAR     66  52  59 CALM      30.01S
RACINE         CLEAR     61  55  81 S6        30.04R
BURLINGTON     CLEAR     57  53  89 CALM      30.02R
KENOSHA        CLEAR     61  55  81 S6        30.03R
FOND DU LAC    PTCLDY    65  55  70 W5        30.00R
SHEBOYGAN      PTCLDY    60  51  72 S5        30.00R
WEST BEND      PTCLDY    63  54  72 SW3       30.01R
JUNEAU         CLEAR     65  51  62 W5        30.03R
$$

LSZ147-162-310300-
LAKE SUPERIOR

STATION/POSITION TIME  TEMP    WIND        PRES    WAVE
                       AIR SEA DIR/SP/G            HT/PER
                 (UTC) (F)     (DEG/KT/KT) (MB)    (FT/S)
W MID LAKE BUOY  0150   50 43  210/  4/  4 1014.1F   1/ 4
PORT WING        0100   70     210/  3/  4 1014.2
SAXON HARBOR     0100          190/  5/  7 1014.2
$$

LMZ867-665-643>646-310300-
LAKE MICHIGAN

STATION/POSITION TIME  TEMP    WIND        PRES    WAVE
                       AIR SEA DIR/SP/G            HT/PER
                 (UTC) (F)     (DEG/KT/KT) (MB)    (FT/S)
N MID LAKE BUOY  0150   57 54  210/  8/  8 1014.6R   0
NORTHPORT PIER   0100   63     210/  5/ 10 1014.6R
SISTER BAY       0140   64     230/  8/  8   N/A
KEWAUNEE LAKESHO 0100   61     180/  7/ 10 1014.6F
SHEBOYGAN LAKESH 0200   63     190/ 10/ 10 1015.9R
PORT WASHINGTON  0140   63     210/  2/  5 1016.3S
ATWATER BUOY     0200   64     160/ 10     1017.2R
MILWAUKEE LAKESH 0100   63     150/  8/  9   N/A
S MID LAKE BUOY  0150   61 61  170/  4/  4 1016.6R   0
KENOSHA   LAKESH 0200   62     200/  4/  7 1016.3R
$$

TC  - TEMPERATURE IN CELSIUS
VSB - VISIBILITY IN STATUTE MILES
WCI - WIND CHILL INDEX
HX  - HEAT INDEX



USA.gov is the U.S. government's official web portal to all federal, state and local government web resources and services.